sat.trackr.live / text

‹ back to catalog

KUIPER-00134

NORAD 65960 · 2025-228P

PAYLOAD ACTIVE UNKNOWN

§ Identity

Operator
Country
US
Launch date
2025-10-14
Launch site
AFETR
Launch vehicle
Mass (kg)
RCS (m²)

External: N2YO · Heavens-Above · Gunter

§ Orbital elements

Epoch: 2026-05-25T04:11:47.224032Z

Period
93.47 min
Inclination
51.8738°
Eccentricity
0.0005667
Mean motion
15.40637734 rev/d
Perigee alt
440.4 km
Apogee alt
448.1 km
Semi-major
6,822.4 km
B*
7.6307e-4
RAAN
309.2255°
Arg perigee
223.3567°
Mean anomaly
136.6976°
Rev number
3,557

§ Raw data

KUIPER-001341 65960U 25228P   26145.17485213  .00031333  00000+0  76307-3 0  99922 65960  51.8738 309.2255 0005667 223.3567 136.6976 15.40637734 35576

JSON: /api/v1/satellites/65960 · /tle

For live sub-satellite position, see the globe view (requires WebGL).

§ Visibility from observer

Set your observer location to see the next 7 days of passes ≥ 10°. The values pass through the URL so the page stays shareable.

No JS? Fill the form by hand. The geolocation button needs JavaScript.